Location: *
(51.5000°N, 0.1100°W)
Time: 19:44:43
(UTC+00:00)

Genesis I - Pass Details

Date: 25 May 2024
Orbit: 433 x 467 km, 64.5° (Epoch: 16 June)

Event Time Altitude Azimuth Distance (km) Brightness Sun altitude
Exits shadow 02:28:16 16° 222° (SW) 1,279 4.5 -10.3°
Maximum altitude 02:31:03 88° 314° (NW) 460 2.9 -10.1°
Drops below altitude 10° 02:34:38 10° 42° (NE) 1,608 7.3 -9.7°
Sets 02:36:46 0° 43° (NE) 2,493 9.0 -9.5°
